Location: Grandview
(34.8900°N, 117.1058°W)
Time: 02:15:16
(UTC-08:00)

Envisat - Pass Details

Date: 09 October 2017
Orbit: 764 x 766 km, 98.2° (Epoch: 13 December)

Event Time Altitude Azimuth Distance (km) Brightness Sun altitude
Exits shadow 20:24:57 36° 16° (NNE) 1,208 3.9 -26.2°
Drops below altitude 10° 20:28:05 10° 357° (N) 2,308 5.6 -26.8°
Sets 20:30:25 0° 353° (N) 3,238 6.5 -27.3°
